Regional Weather Roundup
Issued by NWS

Home | Current Version | Previous Version | Text Only | Print | Product List | Glossary Off
Versions: 1 2 3 4 5 6 7 8 9 10 11 12 13 14 15 16 17 18 19 20 21 22 23 24 25 26 27 28 29 30 31 32 33 34 35 36 37 38 39 40 41 42 43 44 45 46 47 48 49 50

000
ASUS43 KFSD 210910
RWRSD

WEATHER ROUNDUP FOR SOUTH DAKOTA
NATIONAL WEATHER SERVICE SIOUX FALLS SD
400 AM CDT THU AUG 21 2014

NOTE: "FAIR" INDICATES FEW OR NO CLOUDS BELOW 12,000 FEET WITH NO
SIGNIFICANT WEATHER AND/OR OBSTRUCTIONS TO VISIBILITY.


SDZ001>005-009-010-012>017-211000-
NORTHWEST AND NORTH CENTRAL SOUTH DAKOTA

CITY           SKY/WX    TMP DP  RH WIND       PRES   REMARKS
BUFFALO          N/A     59  55  87 W3        29.80R
FAITH            N/A     60  59  96 NW10      29.81R
MOBRIDGE       CLEAR     64  64 100 NW10      29.71R
$$

SDZ012>016-024>037-041>051-057-063-072>074-211000-
SOUTHWEST AND SOUTH CENTRAL SOUTH DAKOTA

CITY           SKY/WX    TMP DP  RH WIND       PRES   REMARKS
RAPID CTY ARPT LGT RAIN  65  60  84 NW5       29.87R
PIERRE         CLEAR     65  64  97 NW10      29.71R
CUSTER         TSTM      59  52  77 W6        30.00R
ELLSWORTH AFB  CLOUDY    65  59  80 NW7       29.87S
PHILIP         CLEAR     62  60  93 W9        29.80R
PINE RIDGE     PTCLDY    58  55  90 CALM      29.88R
WINNER         FAIR      71  62  73 W10       29.73S
$$

SDZ004>011-016>023-039-040-211000-
NORTHEAST SOUTH DAKOTA

CITY           SKY/WX    TMP DP  RH WIND       PRES   REMARKS
ABERDEEN       MOCLDY    64  64 100 W6        29.67R
WATERTOWN      MOCLDY    65  64  97 E5        29.70F
SISSETON         N/A     69  69 100 E10       29.64F
$$

SDZ017-020-022-023-036>040-048>070-211000-
SOUTHEAST SOUTH DAKOTA

CITY           SKY/WX    TMP DP  RH WIND       PRES   REMARKS
SIOUX FALLS    PTCLDY    76  69  79 S10       29.68S
HURON          MOCLDY    70  66  87 E10       29.66F
CHAMBERLAIN    MOCLDY    71  71  99 NW6       29.69R FOG
MITCHELL       CLEAR     74  72  93 CALM      29.66R
YANKTON        PTCLDY    75  72  88 S7        29.67F
$$

ABBREVIATIONS USED IN REMARKS
   TC - TEMPERATURE IN CELSIUS
  WCI - WIND CHILL INDEX
   HX - HEAT INDEX
  VSB - VISIBILITY



USA.gov is the U.S. government's official web portal to all federal, state and local government web resources and services.